QUAO2: Spring River Near Quapaw, OK

Data processed at Sun Sep 23 2018 22:02


All information presented herein is the property of the government of the United States of America and may be revised or deleted at any time without prior notice.
Dissemination of this information without the expressed written consent of the Public Affairs Office, Tulsa District U.S. Army Corps of Engineers is strictly prohibited.
These data are gathered electronically and, as presented, have not undergone any form of quality control. These data are not guaranteed to be valid or correct.
Go to home page.
Go to station list.
Go to home page.

Upstream stations:

Downstream station:
Previous Day
Next Day
Current Day
    
SHEF ID:       QUAO2     Spring River near Quapaw, OK
STATION TYPE:  

               PRECIP     STAGE  STAGE(2)  RIV-FLOW  BAT-LOAD
                   in        ft        ft       cfs      volt
              Ccp-Rev   Ccp-Rev   Ccp-Rev   Ccp-Rev   Ccp-Rev
(US/Central)
09/23 00:00      0.00      6.02      6.06       370     12.49
09/23 01:00      0.00      6.02      6.06       370     12.49
09/23 02:00      0.00      6.01      6.05       366     12.49
09/23 03:00      0.00      6.01      6.05       366     12.49
09/23 04:00      0.00      6.00      6.04       362     12.41
09/23 05:00      0.00      6.00      6.04       362     12.41
09/23 06:00      0.00      6.00      6.04       362     12.41
09/23 07:00      0.00      6.00      6.04       362     12.41
09/23 08:00      0.00      6.00      6.03       362     12.41
09/23 09:00      0.00      6.00      6.02       362     12.49
09/23 10:00      0.00      6.00      6.01       362     12.89
09/23 11:00      0.00      5.99     45.98       358     13.13
09/23 12:00      0.00      5.99     46.07       358     13.21
09/23 13:00      0.00      5.99     46.06       358     13.53
09/23 14:00      0.00      5.99     46.17       358     13.29
09/23 15:00      0.00      5.98     46.14       354     13.21
09/23 16:00      0.00      5.98     46.14       354     13.44
09/23 17:00      0.00      5.98      5.91       354     13.21
09/23 18:00      0.00      5.98      5.93       354     13.21
09/23 19:00      0.00      5.97      5.99       350     13.05
09/23 20:00      0.00      5.97      6.00       350     12.73
09/23 21:00      0.00      5.97      6.00       350     12.57
09/23 22:00      ----      ----      ----      ----      ----
09/23 23:00      ----      ----      ----      ----      ----